Чемдальск

Россия / Красноярский край     59°37′51″N   103°19′27″E
темп.,
°C
ветер,
м/с
пор.,
м/с
влажн.,
%
обл.,
%
осадки,
мм/ч
давл.,
гПа
погр.,
м
11 мая, вт
вт1101:00+1ссв119883 0.0 102222
04:00+3ссв2391100 0.0 102195
07:00+2св3798100 0.2 1022334
10:00+3ссв3578100 0.3 1023921
13:00+5ссв4656100 0.5 10221802
16:00+5ссв465598 0.1 10221515
19:00+3ссв3764100 0.3 1023736
22:000с278333 0.1 1023176
12 мая, ср
ср1201:00−2с26885 0.1 1023146
04:00−3с26895 0.0 1023155
07:00+2ссв366517 0.0 1023955
10:00+3ссв4551100 0.1 10221472
13:00+6св3543100 0.1 10211999
16:00+6св3539100 0.0 10201943
19:00+5ссв11506 0.0 102013
22:000ссз116361 0.0 102110
13 мая, чт
чт1301:00−1с11765 0.0 102210
04:00−2ссз11815 0.0 102210
07:00+5зсз11530 0.0 1021343
10:00+9з22375 0.0 10191577
13:00+11зюз23285 0.0 10171951
16:00+12зюз33265 0.0 10152124
19:00+10юз24383 0.0 1015100
22:00+4ююз24531 0.0 101574
14 мая, пт
пт1401:00+3ююз245831 0.0 101473
04:00+1ю236558 0.0 101452
07:00+7ююз3743100 0.0 1012366
10:00+12ююз4629100 0.0 10101782
13:00+14ююз472475 0.0 10072322
16:00+15юз5822100 0.0 10052587
19:00+12ю2435100 0.0 100482
22:00+7ю2453100 0.0 100460
15 мая, сб
сб1501:00+5ююв21061100 0.0 1002182
04:00+5зюз4890100 0.4 1002894
07:00+4зсз3789100 0.6 1004789
10:00+5зсз3574100 0.1 1004857
13:00+5зсз4865100 1.4 10061278
16:00+8зсз6833100 0.0 10052446
19:00+2з51092100 2.5 1005856
22:00